Flag for United Kingdom Weather past 2 weeks in Ipswich, England, United Kingdom

Now
37 °F

Passing clouds.


Feels Like: 30 °F
Forecast: N/A
Wind: 10 mph from South

Location: Wattisham

Current Time: Feb 27, 2015 at 9:54:43 PM

Latest Report: Feb 27, 2015 at 8:50 PM


Visibility: N/A

Pressure: 30.07 "Hg

Humidity: 75%

Dew point: 30 °F

Location of IpswichLocation

Historic Weather in Ipswich — Graph

°F

Ipswich temperature yesterday

Maximum temperature yesterday: 50 °F (at 10:50 AM)
Minimum temperature yesterday: 36 °F (at 10:50 PM)
Average temperature yesterday: 45 °F

Past Weeks' High & Low Weather Summary

 TemperatureHumidityPressure
High50 °F (Feb 25, 12:50 PM)100% (Feb 14, 8:50 AM)30.72 "Hg (Feb 14, 8:50 AM)
Low27 °F (Feb 22, 4:50 AM)53% (Feb 17, 2:50 PM)29.18 "Hg (Feb 22, 11:50 PM)
Average40 °F85%29.86 "Hg
* Reported Feb 12 7:50 PM — Feb 27 7:50 PM, Ipswich, Weather by CustomWeather, © 2015

Note: Actual official high and low records may vary slightly from our data, if they occured in-between our weather recording intervals... More about our weather records

Advertising

Ipswich weather history for previous 24 hours

 ConditionsComfort  
Time TempWeatherWind HumidityBarometerVisibility
7:50 PM
Fri, Feb 27
39 °FChilly.7 mph70%30.09 "HgN/A
6:50 PM39 °FPassing clouds.6 mph70%30.09 "HgN/A
5:50 PM39 °FPassing clouds.7 mph70%30.09 "HgN/A
4:50 PM43 °FQuite cool.7 mph61%30.09 "HgN/A
3:50 PM43 °FPassing clouds.10 mph66%30.07 "HgN/A
2:50 PM43 °FScattered clouds.8 mph61%30.09 "HgN/A
1:50 PM43 °FScattered clouds.13 mph57%30.09 "HgN/A
12:50 PM45 °FPassing clouds.10 mph61%30.09 "HgN/A
11:50 AM43 °FPassing clouds.13 mph76%30.09 "HgN/A
10:50 AM41 °FPassing clouds.15 mph76%30.09 "HgN/A
9:50 AM39 °FSunny.13 mph75%30.07 "Hg10 mi
8:50 AM37 °FSunny.12 mph75%30.07 "Hg10 mi
7:50 AM34 °FSunny.9 mph87%30.07 "Hg10 mi
6:50 AM34 °FSunny.9 mph81%30.04 "Hg10 mi
5:50 AM34 °FClear.10 mph81%30.01 "Hg10 mi
4:50 AM34 °FClear.12 mph81%30.01 "Hg10 mi
3:50 AM34 °FClear.10 mph81%29.98 "Hg10 mi
2:50 AM36 °FClear.14 mph75%29.98 "Hg10 mi
1:50 AM36 °FChilly.14 mph75%29.98 "HgN/A
12:50 AM36 °FChilly.13 mph75%29.95 "HgN/A
11:50 PM
Thu, Feb 26
36 °FClear.13 mph81%29.95 "Hg10 mi
10:50 PM36 °FClear.12 mph81%29.92 "Hg10 mi
9:50 PM37 °FClear.13 mph75%29.92 "Hg10 mi
Weather by CustomWeather, © 2015

See weather overviewHow to use our weather pages